Regional Weather Roundup
Issued by NWS

Home | Current Version | Previous Version | Graphics & Text | Print | Product List | Glossary On
Versions: 1 2 3 4 5 6 7 8 9 10 11 12 13 14 15 16 17 18 19 20 21 22 23 24 25 26 27 28 29 30 31 32 33 34 35 36 37 38 39 40 41 42 43 44 45 46 47 48 49 50
547
ASUS43 KBIS 261602
RWRND

NORTH DAKOTA REGIONAL WEATHER ROUNDUP
NATIONAL WEATHER SERVICE BISMARCK ND
1100 AM CDT TUE SEP 26 2017

NOTE: "FAIR" INDICATES FEW OR NO CLOUDS BELOW 12,000 FEET WITH NO
SIGNIFICANT WEATHER AND/OR OBSTRUCTIONS TO VISIBILITY.


NDZ001>003-009>011-017-261700-
NORTHWEST NORTH DAKOTA

CITY           SKY/WX    TMP DP  RH WIND       PRES   REMARKS
WILLISTON      CLOUDY    50  44  80 NW5       30.13S
MINOT          CLOUDY    50  44  80 CALM      30.12R
MINOT AFB      CLOUDY    50  45  82 S3        30.11R
$$

NDZ018>021-031>035-040>046-261700-
SOUTHWEST NORTH DAKOTA

CITY           SKY/WX    TMP DP  RH WIND       PRES   REMARKS
BISMARCK       CLOUDY    51  45  79 NE6       30.13F
DICKINSON      CLOUDY    48  44  86 CALM      30.10R
GARRISON         N/A     50  44  80 CALM      30.12S
HETTINGER ARPT CLOUDY    49  44  83 W6        30.12S
$$

NDZ004>008-012>016-024-026-027-054-261700-
NORTHEAST NORTH DAKOTA

CITY           SKY/WX    TMP DP  RH WIND       PRES   REMARKS
GRAND FORKS    RAIN      50  50 100 NW8       30.08R FOG
GRND FRKS AFB  RAIN      48  47  99 NW7       30.09R
DEVILS LAKE    LGT RAIN  46  44  93 N7        30.13R
$$

NDZ022-023-025-028>030-036>039-047>053-261700-
SOUTHEAST NORTH DAKOTA

CITY           SKY/WX    TMP DP  RH WIND       PRES   REMARKS
FARGO          LGT RAIN  50  50 100 NW13      30.07S
JAMESTOWN      CLOUDY    49  47  93 NW8       30.11R
$$





USA.gov is the U.S. government's official web portal to all federal, state and local government web resources and services.